LB9CG Weather Reports


Display with metric or nautical units.
time (UTC)temp
F
wind
direction
speed
MPH
gust
MPH
rain 1hr
in
rain 24hr
in
rain mn
in
humidity
%
barometer
mb
20260902165100 56 0.0 0.0 0.00 0.11 0.11 82 1001.4
20260902164144 57 0.0 0.0 0.00 0.11 0.11 80 1001.4
20260902163035 57 0.0 0.0 0.00 0.11 0.11 80 1001.3
20260902162059 59 0.0 0.0 0.00 0.11 0.11 73 1001.4
20260902161123 59 0.0 0.0 0.00 0.11 0.11 73 1001.4
20260902160036 58 0.0 0.0 0.00 0.11 0.11 80 1001.7
20260902155100 57 0.0 0.0 0.00 0.11 0.11 80 1001.7
20260902154124 56 0.0 0.0 0.00 0.11 0.11 82 1001.8
20260902153035 56 0.0 0.0 0.00 0.11 0.11 83 1001.6
20260902152059 57 0.0 0.0 0.00 0.11 0.11 81 1001.7
20260902151124 57 0.0 0.0 0.00 0.11 0.11 81 1001.7
20260902150036 57 0.0 0.0 0.00 0.11 0.11 80 1001.7
20260902145100 58 354 1.0 3.0 0.00 0.11 0.11 75 1001.7
20260902144123 58 306 1.0 2.0 0.00 0.11 0.11 78 1001.8
20260902143035 59 3 0.0 1.0 0.00 0.11 0.11 72 1001.9
20260902142059 58 162 2.0 2.0 0.00 0.11 0.11 78 1002.1
20260902141124 58 234 1.0 2.0 0.00 0.11 0.11 79 1002.0
20260902140036 57 156 0.0 2.0 0.00 0.11 0.11 84 1001.9
20260902135120 57 166 1.0 1.0 0.00 0.11 0.11 84 1002.3
20260902134124 56 0.0 0.0 0.00 0.11 0.11 85 1002.2
20260902133036 56 0.0 0.0 0.00 0.11 0.11 85 1002.1
20260902132100 56 152 1.0 2.0 0.00 0.11 0.11 85 1002.1
20260902131123 56 146 2.0 2.0 0.00 0.11 0.11 85 1002.1
20260902130035 56 133 1.0 2.0 0.00 0.11 0.11 85 1002.2
20260902125100 56 137 2.0 2.0 0.00 0.11 0.11 87 1002.4
20260902124123 56 147 1.0 2.0 0.00 0.11 0.11 88 1002.3
20260902123115 56 144 1.0 2.0 0.00 0.11 0.11 88 1002.3
20260902122100 56 168 0.0 2.0 0.00 0.11 0.11 87 1002.4
20260902121203 55 0.0 0.0 0.00 0.11 0.11 91 1002.4
20260902120035 55 139 3.0 4.0 0.00 0.11 0.11 89 1002.3
20260902115059 55 162 1.0 3.0 0.00 0.11 0.11 89 1002.4
20260902114123 55 169 1.0 1.0 0.00 0.11 0.11 91 1002.3
20260902113036 55 148 2.0 3.0 0.00 0.11 0.11 91 1002.4
20260902112059 55 157 1.0 3.0 0.00 0.11 0.11 91 1002.4
20260902111123 55 181 1.0 3.0 0.00 0.11 0.11 92 1002.5
20260902110035 55 158 1.0 2.0 0.02 0.11 0.11 91 1002.5
20260902105102 54 0.0 0.0 0.02 0.11 0.11 92 1002.4
20260902104126 54 180 0.0 1.0 0.02 0.11 0.11 94 1002.5
20260902103038 53 0.0 0.0 0.01 0.10 0.10 93 1002.1
20260902102102 53 129 3.0 3.0 0.00 0.09 0.09 93 1002.5
20260902101126 53 198 0.0 2.0 0.00 0.09 0.09 93 1002.6
20260902100038 53 0.0 0.0 0.00 0.09 0.09 92 1002.2
20260902095122 53 0.0 0.0 0.00 0.09 0.09 92 1002.0
20260902094126 53 106 2.0 4.0 0.00 0.09 0.09 90 1002.1
20260902093038 53 155 0.0 1.0 0.00 0.09 0.09 93 1002.3
20260902092102 53 188 0.0 1.0 0.00 0.09 0.09 92 1002.4
20260902091126 53 209 0.0 1.0 0.00 0.09 0.09 91 1002.2
20260902090038 53 0.0 0.0 0.00 0.09 0.09 91 1002.3
20260902085122 53 0.0 0.0 0.00 0.09 0.09 90 1002.1
20260902084126 53 204 0.0 1.0 0.00 0.09 0.09 89 1001.8
20260902083038 53 276 0.0 1.0 0.00 0.09 0.09 89 1002.0
20260902082102 53 252 0.0 1.0 0.00 0.09 0.09 91 1002.0
20260902081125 54 0.0 0.0 0.00 0.09 0.09 94 1001.9
20260902080038 53 0.0 0.0 0.01 0.09 0.09 94 1001.7
20260902075122 54 0.0 0.0 0.01 0.09 0.09 94 1001.6
20260902074125 53 0.0 0.0 0.00 0.08 0.08 92 1001.6
20260902073038 53 0.0 0.0 0.00 0.08 0.08 93 1001.5
20260902072102 52 0.0 0.0 0.00 0.08 0.08 94 1001.3
20260902071126 53 0.0 0.0 0.00 0.08 0.08 95 1001.2
20260902070038 53 0.0 0.0 0.00 0.08 0.08 95 1001.4
20260902065103 52 0.0 0.0 0.00 0.08 0.08 95 1001.4
20260902064125 52 0.0 0.0 0.00 0.08 0.08 93 1001.3
20260902063037 51 0.0 0.0 0.00 0.08 0.08 94 1001.3
20260902062101 51 0.0 0.0 0.00 0.08 0.08 92 1001.1
20260902061125 50 0.0 0.0 0.00 0.08 0.08 92 1001.2
20260902060037 50 0.0 0.0 0.06 0.08 0.08 95 1001.2
20260902055101 50 297 1.0 2.0 0.06 0.08 0.08 94 1001.0
20260902054125 50 0.0 0.0 0.05 0.07 0.07 94 1001.0
20260902053037 50 294 0.0 1.0 0.05 0.07 0.07 96 1000.8
20260902052121 50 248 1.0 2.0 0.05 0.07 0.07 95 1000.8
20260902051125 50 0.0 0.0 0.03 0.05 0.05 94 1000.9
20260902050037 50 0.0 0.0 0.02 0.02 0.02 90 1001.1
20260902045101 50 0.0 0.0 0.00 0.00 0.00 89 1000.9
20260902044125 50 252 0.0 1.0 0.00 0.00 0.00 90 1001.0
20260902043037 50 0.0 0.0 0.00 0.00 0.00 89 1001.0
20260902042101 50 0.0 0.0 0.00 0.00 0.00 90 1001.2
20260902041145 50 276 0.0 1.0 0.00 0.00 0.00 89 1001.1
20260902040037 51 0.0 0.0 0.00 0.00 0.00 87 1001.3
20260902035121 51 0.0 0.0 0.00 0.00 0.00 85 1001.2
20260902034125 51 246 0.0 1.0 0.00 0.00 0.00 86 1001.2
20260902033037 52 0.0 0.0 0.00 0.00 0.00 83 1000.9
20260902032101 51 306 1.0 2.0 0.00 0.00 0.00 81 1001.2
20260902031125 51 324 0.0 1.0 0.00 0.00 0.00 82 1001.0
20260902030038 51 312 0.0 2.0 0.00 0.00 0.00 83 1001.3
20260902025101 51 293 1.0 2.0 0.00 0.00 0.00 83 1001.5
20260902024125 51 0.0 0.0 0.00 0.00 0.00 84 1001.5
20260902023037 51 282 0.0 1.0 0.00 0.00 0.00 82 1001.6
20260902022141 51 334 1.0 2.0 0.00 0.00 0.00 82 1001.7
20260902021125 51 0.0 0.0 0.00 0.00 0.00 83 1001.8
20260902020037 51 310 1.0 2.0 0.00 0.00 0.00 82 1002.1
20260902015102 50 324 2.0 2.0 0.00 0.00 0.00 81 1002.3
20260902014124 51 252 1.0 2.0 0.00 0.00 0.00 81 1002.1
20260902013037 51 18 1.0 3.0 0.00 0.00 0.00 79 1002.5
20260902012121 51 78 1.0 3.0 0.00 0.00 0.00 79 1002.2
20260902011145 51 96 3.0 3.0 0.00 0.00 0.00 80 1002.4
20260902010037 50 86 2.0 4.0 0.00 0.00 0.00 81 1002.6
20260902005101 49 348 0.0 1.0 0.00 0.00 0.00 87 1002.7
20260902004124 49 0.0 0.0 0.00 0.00 0.00 90 1002.9
20260902003036 49 306 0.0 1.0 0.00 0.00 0.00 91 1002.9
20260902002100 49 0.0 0.0 0.00 0.00 0.00 90 1003.2
20260902001144 48 306 0.0 1.0 0.00 0.00 0.00 90 1003.1
20260902000036 48 0.0 0.0 0.00 0.00 0.00 92 1003.3
20260901235120 48 300 1.0 2.0 0.00 0.00 0.00 91 1003.6
20260901234124 48 270 0.0 1.0 0.00 0.00 0.00 94 1003.5
20260901233036 48 286 1.0 1.0 0.00 0.00 0.00 95 1003.6
20260901232100 48 0.0 0.0 0.00 0.00 0.00 96 1003.7
20260901231124 47 270 0.0 1.0 0.00 0.00 0.00 97 1003.8
20260901230036 47 0.0 0.0 0.00 0.00 0.00 97 1004.0
20260901225101 47 0.0 0.0 0.00 0.00 0.00 96 1004.0
20260901224125 47 319 1.0 2.0 0.00 0.00 0.00 97 1004.2
20260901223037 47 302 1.0 3.0 0.00 0.00 0.00 98 1004.1
20260901222101 46 308 1.0 2.0 0.00 0.00 0.00 98 1004.2
20260901221125 46 0.0 0.0 0.00 0.00 0.00 98 1004.5
20260901220037 46 0.0 0.0 0.00 0.00 0.00 98 1004.4
20260901215101 46 0.0 0.0 0.00 0.00 0.00 98 1004.6
20260901214125 46 0.0 0.0 0.00 0.00 0.00 98 1004.8
20260901213037 46 0.0 0.0 0.00 0.00 0.00 98 1004.8
20260901212101 47 0.0 0.0 0.00 0.00 0.00 97 1004.8
20260901211125 46 0.0 0.0 0.00 0.00 0.00 97 1005.1
20260901210038 47 0.0 0.0 0.00 0.00 0.00 96 1005.2
20260901205101 47 0.0 0.0 0.00 0.00 0.00 96 1005.1
20260901204125 48 0.0 0.0 0.00 0.00 0.00 95 1005.1
20260901203037 48 0.0 0.0 0.00 0.00 0.00 94 1005.3
20260901202100 48 0.0 0.0 0.00 0.00 0.00 94 1005.4
20260901201124 48 306 0.0 1.0 0.00 0.00 0.00 94 1005.5
20260901200056 49 0.0 0.0 0.00 0.00 0.00 93 1005.5
20260901195100 49 0.0 0.0 0.00 0.00 0.00 92 1005.6
20260901194124 49 0.0 0.0 0.00 0.00 0.00 92 1005.8
20260901193036 49 309 1.0 1.0 0.00 0.00 0.00 91 1005.7
20260901192100 49 322 1.0 2.0 0.00 0.00 0.00 91 1005.7
20260901191124 50 279 1.0 2.0 0.00 0.01 0.00 90 1005.8
20260901190056 50 294 0.0 1.0 0.00 0.02 0.00 88 1005.7
20260901185120 50 300 1.0 2.0 0.00 0.02 0.00 87 1005.9
20260901184124 51 0.0 0.0 0.00 0.02 0.00 87 1006.1
20260901183037 51 314 1.0 2.0 0.00 0.03 0.00 87 1006.1
20260901182100 51 306 0.0 1.0 0.00 0.04 0.00 86 1006.1
20260901181124 51 9 1.0 1.0 0.00 0.06 0.00 85 1006.2
20260901180036 52 320 1.0 2.0 0.00 0.07 0.00 84 1006.1
20260901175100 52 332 1.0 1.0 0.00 0.08 0.00 83 1006.2
20260901174124 52 35 2.0 3.0 0.00 0.09 0.00 84 1006.2
20260901173036 52 316 0.0 1.0 0.00 0.10 0.00 85 1006.5
20260901172100 53 299 1.0 2.0 0.00 0.11 0.00 84 1006.4
20260901171124 53 0.0 0.0 0.00 0.11 0.00 84 1006.6
20260901170037 53 0.0 0.0 0.00 0.11 0.00 84 1006.5